Weather in Ilhabela

Brazil     23°49′59″S   45°22′09″W
temp.,
°C
wind,
m/s
gust,
m/s
humid.,
%
clouds,
%
prec.,
mm/h
press.,
hPa
HPBL,
m
15 may, sat
sat1500:00+21ne457597 0.1 1020776
03:00+20ne347797 0.1 1018669
06:00+20nne237943 0.1 1018356
09:00+19nne1182100 0.3 1021244
12:00+21ene337617 0.4 1020646
15:00+21ene347423 0.4 1018778
18:00+20ene347826 0.1 1019644
21:00+20ne347748 0.1 1020639
16 may, sun
sun1600:00+20nne238038 0.1 1019356
03:00+20nne238392 0.3 1018281
06:00+19n128242 0.3 1018238
09:00+20nnw127925 0.4 1020251
12:00+22e227312 0.1 1019496
15:00+22e327518 0.2 1017514
18:00+21ene237625 0.1 1018497
21:00+21ne227833 0.1 1019420
17 may, mon
mon1700:00+20n228311 0.0 1018254
03:00+19nw118652 0.0 1017144
06:00+19wnw228412 0.0 1017143
09:00+21wnw12720 0.0 1017256
12:00+23se43670 0.0 1016582
15:00+23ese33720 0.0 1013359
18:00+21s01810 0.0 1014191
21:00+20wsw11857 0.0 1016112
18 may, tue
tue1800:00+19w22866 0.0 1016114
03:00+19wsw348614 0.0 1016180
06:00+19w338822 0.0 1016182
09:00+21wsw238422 0.6 1018293
12:00+22ssw227722 1.3 1017445
15:00+21sse337946 2.2 1016487
18:00+20s238399 1.0 1017314
21:00+20s228279 1.4 1018372
19 may, wed
wed1900:00+20s228093 0.1 1018400
03:00+20ssw118176 0.3 1017355
06:00+19nne118156 0.1 1016355
09:00+20ene11795 0.4 1018404
12:00+21ese327327 0.1 1017625
15:00+21ese227365 0.2 1015599
18:00+21se227367 0.0 1016575
21:00+20se117341 0.0 1017518